C/2011 J2 ( LINEAR )

Japanese version
Home page
Updated on February 21, 2012

---------------------------------------------------------------------

* Profile

Discovery Date May 4, 2011
Magnitude 19.7 mag
Discoverer Lincoln Laboratory Near-Earth Asteroid Research project

* Pictures

* Orbital Elements

Epoch 2013 Dec. 14.0 TT = JDT 2456640.5
T 2013 Dec. 25.31270 TT                                 MPC
q   3.4435092            (2000.0)            P               Q
z  -0.0001601      Peri.   85.29288     +0.07041242     +0.97005947
 +/-0.0000256      Node   163.94765     +0.16356384     -0.24108880
e   1.0005514      Incl.  122.79743     +0.98401675     -0.02933977
From 74 observations 2011 Mar. 10-Dec. 5, mean residual 0".4.

* Finding Charts

* Magnitudes Graph

        m1 = 5.0 + 5 log d + 10.0 log r

---------------------------------------------------------------------

The orbital elements are published on M.P.E.C. 2011-X25.
The charts are made with StellaNavigator Ver.8 (AstroArts).
The magnitudes graphs are made with Comet for Windows.

---------------------------------------------------------------------

Copyright(C) Seiichi Yoshida (comet@aerith.net). All rights reserved.